TimeEST,TemperatureF,Dew PointF,Humidity,Sea Level PressureIn,VisibilityMPH,Wind Direction,Wind SpeedMPH,Gust SpeedMPH,PrecipitationIn,Events,Conditions,WindDirDegrees,DateUTC
12:26 AM,19.4,12.2,74,29.71,5.0,West,10.4,-,0.00,Snow,Light Snow,270,2013-02-20 05:26:00
12:56 AM,19.0,10.9,71,29.79,7.0,West,19.6,25.3,0.00,Snow,Light Snow,280,2013-02-20 05:56:00
1:21 AM,19.4,8.6,63,29.72,10.0,West,15.0,26.5,0.00,,Overcast,270,2013-02-20 06:21:00
1:56 AM,18.0,8.1,65,29.80,5.0,WSW,9.2,23.0,0.00,Snow,Light Snow,240,2013-02-20 06:56:00
2:29 AM,17.6,8.6,68,29.72,5.0,West,12.7,24.2,0.00,Snow,Light Snow,260,2013-02-20 07:29:00
2:56 AM,17.1,9.0,71,29.80,5.0,WSW,10.4,17.3,0.00,Snow,Light Snow,250,2013-02-20 07:56:00
3:19 AM,17.6,8.6,68,29.72,6.0,West,10.4,20.7,0.00,Snow,Light Snow,260,2013-02-20 08:19:00
3:56 AM,16.0,8.1,71,29.80,5.0,WSW,5.8,19.6,0.00,Snow,Light Snow,250,2013-02-20 08:56:00
4:56 AM,16.0,8.1,71,29.82,6.0,West,15.0,20.7,0.00,Snow,Light Snow,260,2013-02-20 09:56:00
5:56 AM,15.1,7.0,70,29.84,3.0,West,15.0,24.2,0.00,Snow,Light Snow,260,2013-02-20 10:56:00
6:53 AM,14.0,6.8,73,29.76,2.0,West,8.1,24.2,0.00,Snow,Light Snow,260,2013-02-20 11:53:00
6:56 AM,14.0,7.0,74,29.86,2.0,West,16.1,21.9,0.00,Snow,Light Snow,260,2013-02-20 11:56:00
7:14 AM,14.0,6.8,73,29.76,1.8,WSW,10.4,19.6,0.00,Snow,Light Snow,250,2013-02-20 12:14:00
7:26 AM,14.0,6.8,73,29.76,2.5,WSW,11.5,20.7,0.00,Snow,Light Snow,250,2013-02-20 12:26:00
7:53 AM,15.8,6.8,68,29.77,3.0,West,11.5,21.9,0.00,Snow,Light Snow,260,2013-02-20 12:53:00
7:56 AM,15.1,7.0,70,29.86,3.0,WSW,12.7,21.9,0.00,Snow,Light Snow,250,2013-02-20 12:56:00
8:09 AM,15.8,6.8,68,29.77,2.0,West,11.5,24.2,0.00,Snow,Light Snow,260,2013-02-20 13:09:00
8:43 AM,15.8,6.8,68,29.78,4.0,West,15.0,19.6,0.00,Snow,Light Snow,270,2013-02-20 13:43:00
8:56 AM,16.0,7.0,68,29.88,4.0,West,11.5,24.2,0.00,Snow,Light Snow,270,2013-02-20 13:56:00
9:56 AM,17.1,7.0,65,29.88,2.5,West,21.9,31.1,0.00,Snow,Light Snow,270,2013-02-20 14:56:00
10:56 AM,18.0,8.1,65,29.88,2.0,West,17.3,32.2,0.00,Snow,Light Snow,270,2013-02-20 15:56:00
11:07 AM,17.6,8.6,68,29.79,1.8,West,18.4,28.8,0.00,Snow,Light Snow,280,2013-02-20 16:07:00
11:17 AM,17.6,10.4,73,29.80,0.5,NW,17.3,29.9,0.00,Snow,Snow,310,2013-02-20 16:17:00
11:24 AM,15.8,10.4,79,29.80,0.2,WNW,18.4,28.8,0.00,Snow,Heavy Snow,300,2013-02-20 16:24:00
11:43 AM,15.8,8.6,73,29.81,0.8,NW,20.7,28.8,0.00,Snow,Light Snow,310,2013-02-20 16:43:00
11:53 AM,17.6,6.8,63,29.81,2.5,WNW,21.9,29.9,0.00,Snow,Light Snow,290,2013-02-20 16:53:00
11:54 AM,17.1,7.0,65,29.91,2.5,WNW,24.2,29.9,0.00,Snow,Light Snow,300,2013-02-20 16:54:00
12:01 PM,19.4,6.8,58,29.81,7.0,WNW,18.4,29.9,0.00,,Overcast,300,2013-02-20 17:01:00
12:09 PM,17.6,8.6,68,29.81,5.0,NW,19.6,29.9,0.00,Snow,Light Snow,310,2013-02-20 17:09:00
12:22 PM,17.6,6.8,63,29.81,1.8,WNW,24.2,39.1,0.00,Snow,Light Snow,300,2013-02-20 17:22:00
12:36 PM,17.6,6.8,63,29.81,0.8,WNW,26.5,36.8,0.00,Snow,Light Snow,300,2013-02-20 17:36:00
12:43 PM,17.6,6.8,63,29.82,1.2,NW,25.3,34.5,0.00,Snow,Light Snow,310,2013-02-20 17:43:00
12:56 PM,16.0,6.1,65,29.93,1.2,WNW,21.9,34.5,0.00,Snow,Light Snow,300,2013-02-20 17:56:00
1:03 PM,15.8,6.8,68,29.83,2.0,WNW,21.9,32.2,0.00,Snow,Light Snow,290,2013-02-20 18:03:00
1:07 PM,17.6,6.8,63,29.83,1.5,West,26.5,34.5,0.00,Snow,Light Snow,280,2013-02-20 18:07:00
1:11 PM,17.6,6.8,63,29.83,2.0,WNW,19.6,34.5,0.00,Snow,Light Snow,290,2013-02-20 18:11:00
1:39 PM,15.8,8.6,73,29.84,1.5,West,15.0,26.5,0.00,Snow,Light Snow,270,2013-02-20 18:39:00
1:47 PM,15.8,8.6,73,29.84,0.5,WNW,15.0,23.0,0.00,Snow,Snow,300,2013-02-20 18:47:00
2:17 PM,15.8,8.6,73,29.85,1.0,WNW,19.6,31.1,0.00,Snow,Light Snow,290,2013-02-20 19:17:00
2:28 PM,15.8,6.8,68,29.85,1.2,West,21.9,32.2,0.00,Snow,Light Snow,280,2013-02-20 19:28:00
2:48 PM,15.8,6.8,68,29.86,3.0,West,23.0,31.1,0.00,Snow,Light Snow,280,2013-02-20 19:48:00
2:52 PM,15.8,6.8,68,29.86,2.5,WNW,25.3,33.4,0.00,Snow,Light Snow,290,2013-02-20 19:52:00
2:54 PM,15.8,6.8,68,29.87,1.8,West,21.9,33.4,0.00,Snow,Light Snow,280,2013-02-20 19:54:00
2:56 PM,16.0,7.0,68,29.98,1.5,WNW,19.6,33.4,0.00,Snow,Light Snow,290,2013-02-20 19:56:00
3:08 PM,15.8,8.6,73,29.87,1.0,West,20.7,28.8,0.00,Snow,Light Snow,280,2013-02-20 20:08:00
3:45 PM,15.8,8.6,73,29.88,1.2,West,18.4,28.8,0.00,Snow,Light Snow,280,2013-02-20 20:45:00
3:58 PM,15.8,8.6,73,29.89,0.8,WNW,21.9,28.8,0.00,Snow,Light Snow,290,2013-02-20 20:58:00
4:05 PM,15.8,8.6,73,29.89,1.0,WNW,15.0,28.8,0.00,Snow,Light Snow,300,2013-02-20 21:05:00
4:19 PM,15.8,8.6,73,29.90,3.0,WNW,18.4,26.5,0.00,Snow,Light Snow,290,2013-02-20 21:19:00
4:33 PM,15.8,6.8,68,29.90,1.8,WNW,27.6,38.0,0.00,Snow,Light Snow,290,2013-02-20 21:33:00
4:44 PM,15.8,6.8,68,29.91,3.0,WNW,18.4,27.6,0.00,Snow,Light Snow,290,2013-02-20 21:44:00
4:56 PM,16.0,7.0,68,30.02,3.0,WNW,18.4,31.1,0.00,Snow,Light Snow,290,2013-02-20 21:56:00
5:23 PM,15.8,6.8,68,29.91,3.0,WNW,27.6,35.7,0.00,Snow,Light Snow,290,2013-02-20 22:23:00
5:30 PM,15.8,6.8,68,29.91,1.5,West,32.2,41.4,0.00,Snow,Light Snow,280,2013-02-20 22:30:00
5:45 PM,15.8,6.8,68,29.93,3.0,West,21.9,29.9,0.00,,Overcast,280,2013-02-20 22:45:00
5:56 PM,15.1,6.1,68,30.06,8.0,WNW,21.9,33.4,0.00,,Overcast,290,2013-02-20 22:56:00
6:56 PM,15.1,6.1,68,30.06,6.0,West,17.3,33.4,0.00,Snow,Light Snow,280,2013-02-20 23:56:00
7:56 PM,15.1,7.0,70,30.09,4.0,West,18.4,25.3,0.00,Snow,Light Snow,280,2013-02-21 00:56:00
8:56 PM,15.1,8.1,74,30.07,5.0,WNW,20.7,28.8,0.00,Snow,Light Snow,300,2013-02-21 01:56:00
9:56 PM,15.1,8.1,74,30.09,6.0,WNW,19.6,29.9,0.00,Snow,Light Snow,290,2013-02-21 02:56:00
10:56 PM,15.1,8.1,74,30.08,4.0,WNW,23.0,34.5,0.00,Snow,Light Snow,290,2013-02-21 03:56:00
11:56 PM,15.1,8.1,74,30.08,4.0,WNW,18.4,31.1,0.00,Snow,Light Snow,290,2013-02-21 04:56:00